QPF
0.09 0.09 0.08 0.06 0.06 0.07 0.07 0.07 0.06 0.06 0.06 0.05 0.04 0.03 0.01 0.01 0.01 0.01 0.00 0.01 0.01 0.01 0.03 0.04 0.04 0.03 0.03 0.02 0.02 0.02 0.04 0.04 0.03 0.03 0.03 0.02 0.02 0.02 0.02 0.02 0.02 0.01 0.01
0.11 0.11 0.09 0.07 0.06 0.06 0.07 0.08 0.09 0.08 0.07 0.07 0.06 0.04 0.02 0.01 0.01 0.01 0.00 0.00 0.01 0.01 0.03 0.04 0.04 0.04 0.04 0.03 0.02 0.03 0.04 0.04 0.04 0.03 0.03 0.02 0.02 0.02 0.02 0.02 0.01 0.01 0.01
0.09 0.10 0.10 0.08 0.07 0.06 0.06 0.08 0.10 0.11 0.11 0.09 0.08 0.07 0.05 0.02 0.01 0.01 0.01 0.00 0.01 0.01 0.02 0.03 0.03 0.04 0.03 0.03 0.03 0.04 0.04 0.04 0.04 0.03 0.02 0.02 0.02 0.02 0.03 0.02 0.02 0.01 0.01
0.10 0.10 0.10 0.10 0.08 0.08 0.07 0.07 0.08 0.10 0.11 0.10 0.09 0.07 0.06 0.04 0.02 0.01 0.01 0.01 0.01 0.01 0.01 0.02 0.03 0.03 0.03 0.03 0.03 0.04 0.05 0.05 0.04 0.04 0.03 0.02 0.01 0.01 0.02 0.02 0.02 0.02 0.02
0.12 0.13 0.14 0.13 0.12 0.12 0.11 0.09 0.09 0.10 0.10 0.09 0.08 0.07 0.06 0.05 0.03 0.01 0.01 0.01 0.01 0.01 0.01 0.01 0.02 0.03 0.03 0.03 0.04 0.04 0.06 0.06 0.06 0.05 0.04 0.03 0.02 0.02 0.02 0.01 0.01 0.01 0.01
0.07 0.11 0.14 0.16 0.16 0.15 0.15 0.15 0.13 0.12 0.11 0.10 0.09 0.07 0.06 0.05 0.03 0.02 0.01 0.01 0.01 0.01 0.01 0.01 0.02 0.02 0.02 0.03 0.03 0.04 0.05 0.06 0.07 0.06 0.05 0.03 0.02 0.02 0.01 0.01 0.01 0.01 0.01
0.06 0.07 0.10 0.12 0.13 0.12 0.12 0.13 0.14 0.14 0.13 0.12 0.12 0.12 0.09 0.07 0.04 0.02 0.02 0.01 0.01 0.01 0.02 0.01 0.01 0.01 0.01 0.02 0.03 0.04 0.05 0.07 0.08 0.07 0.06 0.03 0.02 0.02 0.01 0.01 0.01 0.01 0.02
0.07 0.07 0.08 0.10 0.11 0.11 0.11 0.10 0.09 0.10 0.10 0.11 0.13 0.14 0.14 0.11 0.08 0.03 0.02 0.02 0.02 0.02 0.02 0.02 0.02 0.01 0.01 0.02 0.02 0.04 0.06 0.07 0.08 0.08 0.06 0.04 0.02 0.01 0.01 0.01 0.01 0.02 0.02
0.08 0.07 0.07 0.08 0.11 0.12 0.12 0.12 0.09 0.06 0.05 0.07 0.09 0.12 0.14 0.12 0.10 0.06 0.03 0.02 0.02 0.02 0.02 0.02 0.02 0.02 0.01 0.02 0.02 0.03 0.06 0.07 0.08 0.08 0.07 0.04 0.02 0.02 0.02 0.02 0.02 0.02 0.02
0.11 0.08 0.07 0.07 0.08 0.10 0.12 0.13 0.12 0.09 0.06 0.05 0.06 0.07 0.09 0.09 0.09 0.07 0.04 0.03 0.02 0.02 0.02 0.02 0.02 0.02 0.02 0.02 0.02 0.03 0.05 0.08 0.08 0.09 0.07 0.04 0.02 0.02 0.02 0.02 0.02 0.02 0.02
0.08 0.09 0.08 0.07 0.07 0.08 0.10 0.12 0.14 0.14 0.12 0.07 0.05 0.05 0.06 0.07 0.07 0.07 0.05 0.03 0.03 0.03 0.03 0.02 0.02 0.03 0.02 0.02 0.03 0.04 0.05 0.07 0.08 0.08 0.06 0.04 0.02 0.02 0.02 0.02 0.02 0.02 0.02
0.06 0.05 0.05 0.04 0.04 0.05 0.08 0.12 0.14 0.14 0.15 0.13 0.09 0.06 0.05 0.05 0.06 0.06 0.06 0.04 0.03 0.02 0.03 0.03 0.03 0.03 0.03 0.03 0.04 0.05 0.05 0.06 0.07 0.07 0.06 0.04 0.02 0.01 0.01 0.01 0.01 0.02 0.02
0.07 0.06 0.05 0.04 0.03 0.03 0.04 0.08 0.12 0.13 0.14 0.14 0.12 0.09 0.07 0.05 0.05 0.05 0.06 0.07 0.06 0.04 0.05 0.05 0.04 0.03 0.04 0.04 0.04 0.05 0.05 0.05 0.05 0.06 0.06 0.05 0.03 0.02 0.02 0.02 0.02 0.02 0.02
0.08 0.07 0.06 0.05 0.04 0.03 0.04 0.06 0.08 0.10 0.10 0.10 0.10 0.10 0.09 0.07 0.06 0.06 0.06 0.08 0.09 0.07 0.06 0.06 0.05 0.04 0.04 0.04 0.04 0.05 0.05 0.04 0.04 0.04 0.05 0.05 0.04 0.02 0.02 0.03 0.03 0.02 0.02
0.04 0.04 0.04 0.05 0.06 0.06 0.07 0.10 0.11 0.11 0.11 0.10 0.08 0.08 0.09 0.08 0.07 0.06 0.06 0.07 0.09 0.09 0.07 0.06 0.06 0.05 0.05 0.05 0.05 0.05 0.06 0.04 0.03 0.04 0.04 0.05 0.05 0.03 0.03 0.03 0.03 0.02 0.02
0.03 0.02 0.02 0.03 0.04 0.06 0.07 0.09 0.11 0.13 0.13 0.13 0.11 0.09 0.08 0.08 0.07 0.07 0.07 0.06 0.07 0.09 0.08 0.05 0.04 0.06 0.06 0.05 0.06 0.05 0.06 0.05 0.04 0.04 0.04 0.04 0.05 0.04 0.03 0.03 0.02 0.02 0.02
0.05 0.04 0.03 0.02 0.04 0.06 0.07 0.07 0.08 0.10 0.12 0.12 0.12 0.10 0.08 0.07 0.07 0.07 0.06 0.06 0.06 0.07 0.09 0.07 0.05 0.06 0.08 0.06 0.06 0.06 0.06 0.05 0.04 0.04 0.04 0.04 0.04 0.04 0.03 0.02 0.02 0.02 0.03
0.05 0.05 0.04 0.03 0.03 0.04 0.05 0.07 0.08 0.09 0.10 0.11 0.11 0.10 0.08 0.07 0.07 0.07 0.06 0.06 0.06 0.05 0.08 0.09 0.06 0.05 0.08 0.08 0.06 0.06 0.06 0.05 0.04 0.04 0.04 0.04 0.04 0.03 0.03 0.02 0.02 0.04 0.04
0.04 0.05 0.04 0.04 0.04 0.04 0.05 0.06 0.06 0.08 0.08 0.08 0.08 0.08 0.07 0.06 0.06 0.06 0.06 0.06 0.06 0.06 0.07 0.09 0.08 0.07 0.07 0.10 0.07 0.07 0.06 0.05 0.05 0.05 0.04 0.04 0.04 0.04 0.03 0.03 0.02 0.03 0.04
0.04 0.04 0.04 0.04 0.05 0.05 0.05 0.06 0.06 0.06 0.07 0.07 0.07 0.06 0.05 0.05 0.05 0.05 0.06 0.06 0.07 0.07 0.06 0.08 0.09 0.08 0.08 0.10 0.09 0.08 0.07 0.07 0.07 0.06 0.06 0.05 0.05 0.05 0.04 0.03 0.02 0.02 0.02
0.03 0.03 0.04 0.04 0.04 0.05 0.06 0.06 0.06 0.06 0.05 0.07 0.06 0.05 0.04 0.05 0.04 0.04 0.04 0.05 0.06 0.06 0.06 0.07 0.09 0.09 0.09 0.09 0.09 0.07 0.06 0.07 0.08 0.08 0.07 0.06 0.06 0.06 0.05 0.04 0.03 0.03 0.03
0.04 0.04 0.03 0.04 0.04 0.05 0.06 0.06 0.06 0.06 0.05 0.07 0.07 0.05 0.04 0.04 0.03 0.03 0.03 0.04 0.04 0.05 0.05 0.06 0.09 0.08 0.09 0.09 0.07 0.06 0.05 0.05 0.07 0.07 0.06 0.06 0.04 0.04 0.04 0.04 0.04 0.04 0.03
0.04 0.04 0.04 0.04 0.05 0.06 0.07 0.07 0.07 0.07 0.06 0.07 0.07 0.06 0.05 0.05 0.03 0.03 0.03 0.03 0.04 0.05 0.05 0.06 0.07 0.07 0.08 0.09 0.08 0.06 0.05 0.04 0.04 0.04 0.04 0.05 0.04 0.03 0.03 0.03 0.03 0.03 0.02
0.05 0.06 0.06 0.05 0.05 0.06 0.07 0.07 0.07 0.07 0.07 0.06 0.06 0.06 0.06 0.06 0.04 0.03 0.03 0.03 0.03 0.05 0.06 0.07 0.07 0.07 0.07 0.08 0.10 0.09 0.06 0.04 0.04 0.04 0.03 0.04 0.03 0.03 0.02 0.02 0.02 0.02 0.02
0.06 0.05 0.05 0.06 0.06 0.06 0.07 0.07 0.08 0.07 0.07 0.07 0.06 0.06 0.06 0.06 0.05 0.05 0.04 0.04 0.04 0.04 0.05 0.07 0.09 0.08 0.07 0.07 0.09 0.09 0.07 0.05 0.04 0.05 0.04 0.03 0.02 0.02 0.02 0.01 0.01 0.01 0.01
0.07 0.06 0.05 0.05 0.05 0.06 0.08 0.08 0.09 0.08 0.07 0.07 0.07 0.06 0.07 0.06 0.06 0.05 0.04 0.04 0.04 0.04 0.05 0.07 0.09 0.09 0.08 0.07 0.07 0.06 0.06 0.05 0.04 0.04 0.03 0.02 0.02 0.02 0.02 0.01 0.01 0.01 0.01
MSLP
1014.10 1014.27 1014.40 1014.50 1014.59 1014.66 1014.74 1014.81 1014.87 1014.91 1014.93 1014.91 1014.84 1014.74 1014.62 1014.51 1014.41 1014.36 1014.35 1014.39 1014.46 1014.54 1014.64 1014.72 1014.80 1014.88 1014.97 1015.09 1015.26 1015.46 1015.69 1015.93 1016.17 1016.38 1016.54 1016.66 1016.73 1016.78 1016.82 1016.87 1016.92 1017.00 1017.07
1013.58 1013.70 1013.80 1013.88 1013.94 1014.01 1014.09 1014.17 1014.27 1014.35 1014.40 1014.41 1014.39 1014.32 1014.23 1014.14 1014.06 1014.03 1014.05 1014.11 1014.21 1014.32 1014.44 1014.54 1014.63 1014.71 1014.79 1014.89 1015.03 1015.21 1015.42 1015.66 1015.90 1016.13 1016.32 1016.48 1016.59 1016.68 1016.75 1016.81 1016.88 1016.96 1017.03
1013.06 1013.14 1013.21 1013.26 1013.30 1013.36 1013.44 1013.54 1013.66 1013.77 1013.85 1013.90 1013.90 1013.85 1013.78 1013.70 1013.64 1013.62 1013.66 1013.74 1013.86 1014.01 1014.15 1014.27 1014.38 1014.46 1014.54 1014.63 1014.74 1014.90 1015.09 1015.31 1015.56 1015.79 1016.01 1016.20 1016.35 1016.47 1016.57 1016.66 1016.73 1016.81 1016.89
1012.58 1012.63 1012.66 1012.69 1012.72 1012.77 1012.85 1012.95 1013.08 1013.20 1013.30 1013.37 1013.38 1013.34 1013.27 1013.20 1013.14 1013.12 1013.16 1013.25 1013.39 1013.56 1013.73 1013.89 1014.01 1014.11 1014.20 1014.28 1014.39 1014.52 1014.70 1014.91 1015.15 1015.39 1015.63 1015.84 1016.02 1016.17 1016.29 1016.39 1016.48 1016.56 1016.64
1012.16 1012.17 1012.18 1012.18 1012.20 1012.24 1012.32 1012.42 1012.54 1012.66 1012.76 1012.82 1012.83 1012.79 1012.71 1012.62 1012.54 1012.52 1012.55 1012.64 1012.79 1012.98 1013.18 1013.37 1013.53 1013.66 1013.76 1013.86 1013.97 1014.10 1014.26 1014.47 1014.70 1014.94 1015.19 1015.41 1015.61 1015.79 1015.93 1016.04 1016.14 1016.22 1016.29
1011.80 1011.78 1011.76 1011.75 1011.75 1011.78 1011.83 1011.92 1012.03 1012.13 1012.22 1012.26 1012.25 1012.18 1012.09 1011.97 1011.88 1011.83 1011.85 1011.94 1012.09 1012.29 1012.51 1012.73 1012.93 1013.10 1013.24 1013.37 1013.49 1013.64 1013.80 1014.00 1014.23 1014.47 1014.71 1014.94 1015.15 1015.33 1015.48 1015.61 1015.71 1015.80 1015.87
1011.49 1011.43 1011.39 1011.35 1011.33 1011.33 1011.37 1011.43 1011.51 1011.58 1011.64 1011.66 1011.62 1011.54 1011.42 1011.29 1011.18 1011.11 1011.11 1011.18 1011.33 1011.53 1011.77 1012.02 1012.26 1012.47 1012.66 1012.83 1012.99 1013.15 1013.34 1013.54 1013.76 1013.99 1014.23 1014.45 1014.65 1014.83 1014.99 1015.12 1015.24 1015.33 1015.42
1011.22 1011.11 1011.03 1010.96 1010.90 1010.87 1010.87 1010.90 1010.94 1010.98 1011.01 1011.00 1010.95 1010.86 1010.73 1010.60 1010.47 1010.39 1010.37 1010.43 1010.57 1010.77 1011.01 1011.28 1011.55 1011.81 1012.05 1012.26 1012.47 1012.66 1012.87 1013.08 1013.29 1013.51 1013.73 1013.94 1014.13 1014.31 1014.47 1014.61 1014.73 1014.85 1014.96
1010.98 1010.82 1010.68 1010.55 1010.45 1010.37 1010.32 1010.29 1010.29 1010.30 1010.31 1010.29 1010.24 1010.15 1010.04 1009.91 1009.80 1009.72 1009.69 1009.74 1009.86 1010.05 1010.29 1010.57 1010.86 1011.15 1011.43 1011.70 1011.94 1012.17 1012.40 1012.62 1012.83 1013.04 1013.24 1013.43 1013.61 1013.77 1013.93 1014.08 1014.23 1014.37 1014.51
1010.78 1010.55 1010.34 1010.15 1009.97 1009.82 1009.71 1009.62 1009.57 1009.54 1009.53 1009.51 1009.48 1009.42 1009.35 1009.26 1009.17 1009.11 1009.09 1009.13 1009.24 1009.41 1009.64 1009.91 1010.21 1010.52 1010.83 1011.14 1011.42 1011.69 1011.94 1012.17 1012.38 1012.58 1012.76 1012.93 1013.09 1013.25 1013.40 1013.57 1013.73 1013.91 1014.08
1010.64 1010.33 1010.04 1009.76 1009.50 1009.26 1009.06 1008.91 1008.80 1008.73 1008.70 1008.68 1008.68 1008.67 1008.65 1008.61 1008.58 1008.56 1008.56 1008.60 1008.70 1008.85 1009.06 1009.31 1009.61 1009.93 1010.26 1010.58 1010.90 1011.19 1011.46 1011.70 1011.92 1012.11 1012.28 1012.43 1012.58 1012.74 1012.90 1013.07 1013.26 1013.46 1013.66
1010.58 1010.19 1009.80 1009.43 1009.07 1008.73 1008.43 1008.19 1008.01 1007.89 1007.83 1007.82 1007.84 1007.88 1007.92 1007.96 1007.99 1008.02 1008.05 1008.11 1008.21 1008.34 1008.53 1008.77 1009.05 1009.36 1009.70 1010.03 1010.37 1010.68 1010.97 1011.23 1011.45 1011.64 1011.81 1011.96 1012.11 1012.26 1012.43 1012.61 1012.82 1013.04 1013.26
1010.59 1010.13 1009.66 1009.19 1008.72 1008.28 1007.87 1007.52 1007.25 1007.06 1006.96 1006.94 1006.98 1007.06 1007.16 1007.26 1007.36 1007.45 1007.53 1007.62 1007.72 1007.86 1008.03 1008.25 1008.52 1008.82 1009.15 1009.49 1009.83 1010.16 1010.46 1010.74 1010.97 1011.18 1011.35 1011.51 1011.67 1011.83 1012.00 1012.20 1012.41 1012.64 1012.86
1010.67 1010.16 1009.62 1009.06 1008.49 1007.93 1007.41 1006.95 1006.57 1006.30 1006.14 1006.08 1006.11 1006.21 1006.34 1006.50 1006.66 1006.81 1006.94 1007.07 1007.21 1007.35 1007.53 1007.74 1008.00 1008.29 1008.61 1008.95 1009.30 1009.63 1009.95 1010.24 1010.49 1010.72 1010.91 1011.09 1011.26 1011.44 1011.62 1011.82 1012.03 1012.25 1012.45
1010.79 1010.24 1009.65 1009.02 1008.37 1007.71 1007.08 1006.50 1006.01 1005.63 1005.38 1005.26 1005.25 1005.33 1005.48 1005.67 1005.88 1006.08 1006.27 1006.46 1006.63 1006.81 1007.01 1007.23 1007.49 1007.78 1008.10 1008.43 1008.78 1009.11 1009.44 1009.74 1010.02 1010.26 1010.48 1010.69 1010.88 1011.07 1011.27 1011.47 1011.67 1011.86 1012.04
1010.90 1010.34 1009.73 1009.05 1008.34 1007.60 1006.87 1006.18 1005.57 1005.08 1004.73 1004.51 1004.43 1004.47 1004.60 1004.80 1005.04 1005.28 1005.53 1005.77 1006.00 1006.23 1006.47 1006.73 1007.01 1007.30 1007.62 1007.95 1008.29 1008.62 1008.95 1009.25 1009.54 1009.81 1010.05 1010.29 1010.50 1010.71 1010.92 1011.11 1011.29 1011.46 1011.59
1010.93 1010.39 1009.78 1009.09 1008.34 1007.55 1006.75 1005.97 1005.26 1004.66 1004.19 1003.87 1003.70 1003.67 1003.76 1003.93 1004.17 1004.45 1004.74 1005.04 1005.34 1005.64 1005.94 1006.24 1006.55 1006.87 1007.19 1007.52 1007.84 1008.17 1008.48 1008.78 1009.07 1009.34 1009.61 1009.85 1010.09 1010.31 1010.52 1010.71 1010.87 1011.00 1011.10
1010.85 1010.34 1009.76 1009.08 1008.33 1007.52 1006.67 1005.83 1005.04 1004.35 1003.78 1003.35 1003.09 1002.97 1002.99 1003.12 1003.34 1003.63 1003.96 1004.31 1004.68 1005.05 1005.41 1005.78 1006.13 1006.48 1006.81 1007.14 1007.44 1007.74 1008.03 1008.31 1008.58 1008.85 1009.11 1009.37 1009.61 1009.84 1010.04 1010.22 1010.36 1010.46 1010.53
1010.64 1010.17 1009.62 1008.98 1008.25 1007.45 1006.59 1005.73 1004.90 1004.14 1003.49 1002.97 1002.61 1002.41 1002.35 1002.42 1002.61 1002.89 1003.23 1003.63 1004.05 1004.48 1004.92 1005.34 1005.74 1006.12 1006.46 1006.78 1007.07 1007.34 1007.59 1007.83 1008.07 1008.31 1008.56 1008.80 1009.04 1009.25 1009.45 1009.61 1009.73 1009.82 1009.86
1010.31 1009.87 1009.36 1008.76 1008.07 1007.31 1006.48 1005.63 1004.79 1004.00 1003.30 1002.73 1002.29 1002.00 1001.86 1001.87 1002.00 1002.25 1002.59 1003.01 1003.46 1003.95 1004.43 1004.91 1005.36 1005.76 1006.12 1006.43 1006.70 1006.93 1007.14 1007.33 1007.53 1007.73 1007.94 1008.15 1008.37 1008.56 1008.74 1008.88 1008.98 1009.05 1009.08
1009.88 1009.46 1008.98 1008.43 1007.80 1007.09 1006.31 1005.51 1004.70 1003.92 1003.21 1002.59 1002.10 1001.74 1001.53 1001.47 1001.54 1001.74 1002.05 1002.46 1002.92 1003.43 1003.95 1004.47 1004.95 1005.38 1005.74 1006.05 1006.30 1006.50 1006.66 1006.81 1006.96 1007.11 1007.28 1007.45 1007.62 1007.79 1007.93 1008.05 1008.14 1008.19 1008.21
1009.39 1008.98 1008.53 1008.02 1007.44 1006.79 1006.09 1005.35 1004.60 1003.86 1003.17 1002.55 1002.03 1001.62 1001.35 1001.21 1001.21 1001.35 1001.61 1001.97 1002.42 1002.93 1003.46 1003.99 1004.49 1004.93 1005.31 1005.62 1005.86 1006.03 1006.17 1006.28 1006.38 1006.48 1006.60 1006.73 1006.85 1006.98 1007.09 1007.18 1007.24 1007.27 1007.27
1008.88 1008.48 1008.04 1007.56 1007.04 1006.46 1005.83 1005.17 1004.49 1003.81 1003.17 1002.57 1002.04 1001.61 1001.28 1001.08 1001.00 1001.06 1001.25 1001.55 1001.96 1002.43 1002.95 1003.48 1003.98 1004.44 1004.83 1005.14 1005.38 1005.55 1005.66 1005.75 1005.82 1005.89 1005.96 1006.04 1006.13 1006.21 1006.28 1006.33 1006.36 1006.36 1006.34
1008.40 1007.99 1007.57 1007.11 1006.63 1006.11 1005.55 1004.97 1004.37 1003.77 1003.18 1002.62 1002.11 1001.66 1001.30 1001.04 1000.89 1000.87 1000.97 1001.20 1001.53 1001.96 1002.44 1002.94 1003.44 1003.90 1004.30 1004.63 1004.88 1005.05 1005.17 1005.26 1005.31 1005.36 1005.40 1005.45 1005.50 1005.54 1005.57 1005.58 1005.56 1005.52 1005.47
1007.97 1007.56 1007.14 1006.70 1006.25 1005.78 1005.29 1004.78 1004.26 1003.73 1003.21 1002.69 1002.21 1001.76 1001.37 1001.06 1000.85 1000.75 1000.78 1000.92 1001.18 1001.54 1001.97 1002.44 1002.92 1003.37 1003.78 1004.12 1004.39 1004.59 1004.73 1004.82 1004.88 1004.92 1004.96 1004.99 1005.01 1005.01 1005.00 1004.96 1004.90 1004.81 1004.70
1007.58 1007.18 1006.77 1006.36 1005.93 1005.50 1005.06 1004.62 1004.16 1003.70 1003.23 1002.77 1002.31 1001.88 1001.48 1001.14 1000.88 1000.72 1000.67 1000.74 1000.92 1001.21 1001.58 1002.01 1002.46 1002.90 1003.31 1003.66 1003.95 1004.17 1004.34 1004.45 1004.53 1004.58 1004.62 1004.64 1004.64 1004.62 1004.58 1004.50 1004.38 1004.24 1004.07
Thickness
5655 5656 5657 5656 5655 5655 5656 5656 5657 5658 5658 5658 5658 5659 5660 5660 5659 5659 5658 5656 5655 5655 5655 5656 5655 5655 5655 5655 5654 5653 5652 5651 5649 5647 5645 5643 5641 5638 5636 5633 5630 5628 5626
5644 5645 5646 5647 5646 5645 5646 5647 5648 5648 5649 5650 5650 5651 5652 5652 5652 5652 5651 5650 5649 5648 5648 5648 5648 5649 5648 5648 5648 5647 5646 5644 5643 5641 5639 5637 5634 5632 5629 5626 5624 5621 5619
5633 5634 5635 5636 5636 5636 5636 5637 5637 5638 5639 5640 5641 5641 5642 5644 5645 5644 5644 5643 5643 5641 5641 5641 5641 5641 5641 5642 5641 5641 5639 5638 5636 5634 5632 5630 5627 5625 5622 5619 5617 5614 5612
5622 5623 5624 5625 5625 5626 5626 5627 5627 5629 5630 5630 5632 5632 5633 5634 5636 5637 5636 5636 5636 5636 5635 5633 5633 5634 5634 5635 5635 5634 5633 5631 5630 5628 5626 5623 5621 5618 5615 5612 5610 5607 5605
5611 5613 5613 5613 5614 5615 5617 5618 5618 5620 5620 5620 5621 5622 5624 5626 5627 5628 5629 5629 5629 5629 5628 5626 5625 5626 5626 5627 5627 5627 5626 5625 5623 5621 5619 5617 5614 5611 5608 5605 5603 5600 5597
5602 5603 5603 5603 5604 5606 5607 5609 5610 5610 5610 5611 5612 5613 5614 5616 5618 5620 5622 5622 5622 5621 5620 5620 5619 5619 5619 5620 5620 5620 5619 5618 5616 5614 5612 5610 5607 5604 5601 5598 5595 5592 5590
5591 5592 5593 5594 5594 5596 5599 5600 5601 5602 5601 5601 5602 5604 5606 5607 5610 5613 5613 5614 5614 5614 5613 5613 5612 5612 5612 5612 5612 5613 5612 5611 5609 5607 5605 5603 5600 5597 5594 5591 5588 5585 5582
5581 5583 5584 5585 5586 5588 5590 5591 5592 5593 5593 5593 5595 5596 5599 5601 5604 5605 5606 5606 5607 5606 5605 5605 5605 5605 5605 5605 5606 5605 5604 5603 5602 5600 5598 5596 5593 5590 5587 5583 5580 5577 5575
5572 5573 5575 5576 5577 5579 5581 5581 5583 5585 5586 5585 5587 5589 5592 5599 5598 5598 5598 5599 5599 5599 5599 5598 5598 5597 5597 5597 5598 5598 5596 5595 5594 5592 5591 5588 5586 5583 5580 5576 5573 5570 5567
5562 5563 5564 5566 5568 5569 5570 5572 5573 5576 5578 5579 5579 5580 5583 5586 5587 5591 5592 5592 5592 5592 5592 5591 5591 5590 5590 5590 5590 5589 5588 5587 5586 5584 5583 5581 5578 5576 5572 5568 5565 5563 5560
5552 5553 5554 5556 5557 5559 5561 5562 5564 5567 5569 5571 5573 5573 5574 5575 5579 5581 5585 5586 5586 5586 5585 5585 5584 5584 5583 5583 5582 5581 5580 5579 5578 5576 5575 5572 5570 5568 5564 5561 5558 5555 5552
5541 5543 5543 5546 5548 5550 5552 5554 5555 5558 5561 5563 5564 5566 5568 5570 5573 5575 5578 5578 5579 5580 5577 5577 5577 5577 5576 5575 5575 5573 5572 5572 5570 5568 5566 5564 5562 5559 5556 5553 5550 5547 5544
5531 5533 5534 5536 5539 5541 5543 5545 5546 5549 5552 5554 5556 5558 5560 5563 5565 5566 5567 5568 5568 5569 5569 5569 5569 5569 5569 5568 5568 5565 5565 5564 5563 5560 5558 5556 5553 5550 5547 5545 5542 5540 5537
5522 5523 5525 5528 5531 5533 5535 5536 5538 5540 5543 5546 5548 5549 5551 5552 5554 5557 5558 5559 5559 5561 5563 5564 5562 5561 5561 5561 5560 5558 5558 5557 5555 5553 5551 5549 5546 5543 5540 5537 5535 5533 5530
5510 5512 5515 5519 5522 5524 5526 5528 5530 5532 5534 5537 5540 5540 5541 5543 5544 5547 5548 5550 5551 5553 5557 5558 5555 5555 5554 5553 5552 5551 5550 5550 5548 5546 5544 5541 5539 5536 5533 5530 5528 5525 5523
5501 5503 5506 5509 5512 5515 5517 5520 5522 5524 5526 5529 5531 5533 5533 5534 5535 5537 5539 5540 5542 5545 5548 5550 5547 5547 5546 5545 5545 5544 5543 5542 5541 5539 5537 5535 5532 5529 5526 5523 5521 5518 5516
5492 5494 5496 5499 5502 5505 5508 5511 5514 5516 5518 5520 5522 5524 5526 5526 5527 5529 5530 5531 5533 5535 5538 5539 5537 5537 5538 5538 5537 5537 5536 5535 5534 5532 5530 5527 5526 5523 5520 5517 5514 5512 5510
5483 5484 5486 5489 5492 5495 5498 5502 5504 5507 5510 5512 5513 5515 5516 5517 5518 5520 5522 5524 5526 5527 5529 5531 5531 5530 5531 5532 5531 5529 5529 5527 5526 5524 5522 5521 5519 5516 5514 5511 5508 5505 5503
5474 5476 5478 5480 5482 5485 5489 5492 5495 5497 5501 5502 5504 5506 5507 5508 5511 5512 5514 5516 5517 5519 5521 5522 5524 5523 5524 5524 5523 5521 5521 5519 5518 5517 5515 5513 5512 5509 5507 5505 5501 5499 5496
5465 5467 5469 5471 5473 5476 5479 5482 5485 5488 5491 5493 5495 5497 5498 5500 5502 5504 5506 5508 5509 5510 5512 5514 5515 5516 5516 5515 5515 5515 5514 5513 5511 5510 5507 5506 5504 5502 5500 5498 5495 5493 5489
5456 5458 5460 5462 5464 5467 5470 5473 5476 5480 5483 5485 5486 5488 5489 5491 5493 5495 5498 5500 5500 5502 5504 5506 5508 5509 5509 5508 5508 5508 5506 5505 5504 5502 5500 5499 5498 5496 5493 5491 5489 5486 5483
5447 5449 5451 5454 5456 5459 5461 5464 5467 5470 5474 5477 5478 5479 5481 5483 5485 5487 5489 5491 5492 5495 5497 5499 5501 5503 5503 5502 5500 5499 5498 5497 5496 5494 5492 5492 5490 5489 5487 5485 5482 5479 5476
5438 5440 5442 5445 5447 5450 5452 5455 5457 5461 5465 5468 5470 5472 5474 5475 5477 5479 5480 5481 5483 5485 5489 5492 5493 5495 5495 5495 5492 5491 5490 5489 5489 5487 5485 5484 5483 5482 5480 5478 5475 5472 5469
5429 5431 5434 5436 5438 5441 5444 5447 5449 5453 5457 5460 5462 5464 5465 5468 5470 5471 5472 5474 5476 5478 5481 5483 5485 5486 5485 5484 5483 5482 5482 5480 5479 5478 5477 5476 5476 5474 5472 5470 5467 5464 5462
5421 5423 5425 5428 5431 5434 5436 5439 5442 5446 5449 5452 5454 5456 5459 5462 5464 5464 5465 5467 5469 5470 5471 5472 5473 5474 5475 5475 5475 5474 5473 5472 5472 5471 5469 5468 5468 5466 5465 5463 5460 5457 5455
5413 5416 5418 5421 5424 5427 5429 5431 5434 5438 5442 5444 5447 5449 5452 5454 5457 5458 5459 5461 5462 5462 5463 5463 5464 5464 5465 5465 5466 5467 5468 5466 5465 5464 5463 5460 5459 5457 5457 5456 5453 5450 5449